"Pseudo-MPEC" for CAGMTK2

Created 2024 Apr 20 18:22:07 UT using Find_Orb

Click here for an explanation of pseudo-MPECs

 
 Astrometry: 
     CAGMTK2  C2024 04 01ndHITu0Ppg++,BYqVMJ?IrJcCB-dAstrometryF6fnUi/dN94oD@F51
     CAGMTK2  C2024 04 01!@yLw'vp*HtHl=UV=Fv1Ue)*1XV8[w8aNs8DW`?%R6[b-[_6$T.3F51
     CAGMTK2  C2024 04 01f'nC?)t1kH*)FbieAvU^b7w[M]redacted;\0pclickHkk1H?BmAF51
     CAGMTK2  C2024 04 01'PhCsSdocA.KXhere+,,-iBr:jc26N4Uq'wR1?u+L_5Z.a9nGy!kF51
     CAGMTK2  C2024 04 01AM_17q!e,16g.hyM=*yW^i7GforP*;w)pBJD'65yk_kd3%7Qckb4F51
     CAGMTK2  C2024 04 02yId*;g4^l2e(GMWPm^:=,1'Qs]eMexplanation,)WJDD8\6KrrtF51
     CAGMTK2*1C2024 04 20.26442614 50 46.900-08 42 03.78   ~4K7M 20.05GVNEOCPG96
     CAGMTK2 1C2024 04 20.26960614 50 53.966-08 42 14.11   ~4K7M 19.66GVNEOCPG96
     CAGMTK2 1C2024 04 20.27479314 51 00.983-08 42 23.83   ~4K7M       VNEOCPG96
     CAGMTK2 1C2024 04 20.27998514 51 08.057-08 42 33.95   ~4K7M 20.19GVNEOCPG96
     CAGMTK2 mC2024 04 20.36211114 52 58.530-08 45 04.21   ~4K97 19.60GVNEOCPI52
     CAGMTK2 mC2024 04 20.36247814 52 59.038-08 45 04.50   ~4K97 19.57GVNEOCPI52
     CAGMTK2 mC2024 04 20.36284414 52 59.531-08 45 05.51   ~4K97 19.48GVNEOCPI52
     CAGMTK2 mC2024 04 20.36321114 53 00.006-08 45 06.23   ~4K97 20.07GVNEOCPI52

Station data:
(F51) Pan-STARRS 1, Haleakala  (N20.707234 W156.255910)  US/Hawaii.
   Observers J. Bulger, T. Lowe, A. Schultz, M. Willman. Measurers K.
   Chambers, S. Chastel, T. de Boer, L. Denneau, J. Fairlamb, H. Flewelling,
   M. Huber, C.-C. Lin, E. Magnier, Y. Ramanjooloo, R. Wainscoat, R. Weryk.
   1.8-m Ritchey-Chrétien + CCD.
(G96) Mt. Lemmon Survey  (N32.442751 W110.788720)  US/Arizona.  Observer E.
   J. Christensen. 1.5-m reflector + 10K CCD.
(I52) Steward Observatory, Mt. Lemmon Station  (N32.442544 W110.788920)
   US/Arizona.  Observers T. A. Pruyne, B. M. Africano, E. J. Christensen, G.
   A. Farneth, D. C. Fuls, A. R. Gibbs, A. D. Grauer, H. Gröller, J. A.
   Johnson, R. A. Kowalski, S. M. Larson, G. J. Leonard, D. Rankin, R. L.
   Seaman, F. C. Shelly, K. W. Wierzchoś. 1.0-m prime focus + CCD.

Orbital elements:  CAGMTK2
   Perihelion 2024 Apr 19.42563 +/- 0.00427 TT = 10:12:54 (JD 2460419.92563)
Epoch 2024 Apr 20.0 TT = JDT 2460420.5   Earth MOID: 0.0184   Ma: 0.0584
M   0.34440582 +/- 0.0028           (J2000 ecliptic)             AutoNEOCP
n   0.59962557 +/- 0.000493         Peri.    4.68493 +/- 0.0048
a   1.39278030 +/- 0.000764         Node   204.97956 +/- 0.00021
e   0.2653881 +/- 0.000385          Incl.    1.43518 +/- 0.0017
P   1.64/600.36d           H 27.58  G  0.15   U  7.6
q 1.02315289 +/- 2.48e-5    Q 1.76240771 +/- 0.0015
From 14 observations 2024 Apr. 1-20; mean residual 0".19
Residuals in arcseconds: 
240401 F51  .04-  .06-    240402 F51  .07+  .08+    240420 I52  .04+  .12-    
240401 F51  .19+  .00     240420 G96  .06-  .00     240420 I52  .28+  .22+    
240401 F51  .04+  .07+    240420 G96  .04+  .16-    240420 I52  .32+  .16-    
240401 F51  .04+  .14+    240420 G96  .53-  .25+    240420 I52  .07+  .25-    
240401 F51  .32-  .25-    240420 G96  .17-  .20+    

Ephemerides (geocentric):
Date (UTC) HH   RA             Dec           delta  r     elong  mag " sig PA
---- --------  ------------   ------------  ------ ------ -----  --- --------
2024 04 20 18  15 02 40.490   -08 50 51.58  .01923 1.0232 163.0 19.9 .373 177
2024 04 20 19  15 03 42.353   -08 51 57.72  .01924 1.0232 162.8 19.9 .370 178
2024 04 20 20  15 04 44.126   -08 53 03.16  .01925 1.0232 162.6 20.0 .367   0
2024 04 20 21  15 05 45.809   -08 54 07.88  .01927 1.0232 162.4 20.0 .365   1
2024 04 20 22  15 06 47.399   -08 55 11.90  .01928 1.0232 162.2 20.0 .362   2
2024 04 20 23  15 07 48.893   -08 56 15.20  .01930 1.0232 162.0 20.0 .360   4
2024 04 21 00  15 08 50.290   -08 57 17.79  .01932 1.0232 161.8 20.0 .358   5
2024 04 21 01  15 09 51.586   -08 58 19.66  .01933 1.0232 161.6 20.0 .357   6
2024 04 21 02  15 10 52.779   -08 59 20.82  .01935 1.0233 161.4 20.0 .355   8
2024 04 21 03  15 11 53.868   -09 00 21.27  .01937 1.0233 161.2 20.0 .354   9
2024 04 21 04  15 12 54.849   -09 01 21.00  .01938 1.0233 160.9 20.0 .353  11
2024 04 21 05  15 13 55.720   -09 02 20.01  .01940 1.0233 160.7 20.0 .352  13
2024 04 21 06  15 14 56.481   -09 03 18.31  .01942 1.0233 160.5 20.0 .352  14
2024 04 21 07  15 15 57.127   -09 04 15.90  .01944 1.0233 160.3 20.1 .352  16
2024 04 21 08  15 16 57.657   -09 05 12.78  .01946 1.0233 160.1 20.1 .352  17
2024 04 21 09  15 17 58.069   -09 06 08.94  .01948 1.0233 159.9 20.1 .353  19
2024 04 21 10  15 18 58.360   -09 07 04.39  .01949 1.0233 159.7 20.1 .354  21
2024 04 21 11  15 19 58.529   -09 07 59.13  .01951 1.0233 159.5 20.1 .356  23
2024 04 21 12  15 20 58.574   -09 08 53.16  .01954 1.0233 159.3 20.1 .357  24
2024 04 21 13  15 21 58.492   -09 09 46.47  .01956 1.0233 159.1 20.1 .360  26
2024 04 21 14  15 22 58.281   -09 10 39.09  .01958 1.0233 158.9 20.1 .362  28
2024 04 21 15  15 23 57.940   -09 11 30.99  .01960 1.0233 158.7 20.1 .365  30
2024 04 21 16  15 24 57.467   -09 12 22.19  .01962 1.0233 158.5 20.1 .369  31
2024 04 21 17  15 25 56.859   -09 13 12.68  .01964 1.0233 158.3 20.1 .373  33
2024 04 21 18  15 26 56.115   -09 14 02.47  .01967 1.0234 158.1 20.1 .377  35
2024 04 21 19  15 27 55.232   -09 14 51.56  .01969 1.0234 157.9 20.2 .382  36
2024 04 21 20  15 28 54.210   -09 15 39.96  .01971 1.0234 157.7 20.2 .387  38
2024 04 21 21  15 29 53.046   -09 16 27.65  .01974 1.0234 157.5 20.2 .393  40
2024 04 21 22  15 30 51.738   -09 17 14.65  .01976 1.0234 157.3 20.2 .399  41
2024 04 21 23  15 31 50.285   -09 18 00.96  .01978 1.0234 157.1 20.2 .405  43
2024 04 22 00  15 32 48.685   -09 18 46.58  .01981 1.0234 156.9 20.2 .412  44
2024 04 22 01  15 33 46.936   -09 19 31.51  .01983 1.0234 156.7 20.2 .420  46
2024 04 22 02  15 34 45.037   -09 20 15.76  .01986 1.0234 156.5 20.2 .427  47
2024 04 22 03  15 35 42.986   -09 20 59.32  .01988 1.0234 156.3 20.2 .435  49
2024 04 22 04  15 36 40.781   -09 21 42.21  .01991 1.0234 156.1 20.2 .444  50
2024 04 22 05  15 37 38.422   -09 22 24.41  .01994 1.0234 155.9 20.2 .453  52
2024 04 22 06  15 38 35.905   -09 23 05.95  .01996 1.0234 155.7 20.2 .462  53
2024 04 22 07  15 39 33.231   -09 23 46.81  .01999 1.0235 155.5 20.3 .472  54
2024 04 22 08  15 40 30.396   -09 24 27.00  .02002 1.0235 155.3 20.3 .482  55
2024 04 22 09  15 41 27.401   -09 25 06.53  .02005 1.0235 155.1 20.3 .492  57
2024 04 22 10  15 42 24.243   -09 25 45.39  .02008 1.0235 154.9 20.3 .502  58
2024 04 22 11  15 43 20.921   -09 26 23.60  .02010 1.0235 154.7 20.3 .513  59
2024 04 22 12  15 44 17.435   -09 27 01.15  .02013 1.0235 154.6 20.3 .525  60
2024 04 22 13  15 45 13.781   -09 27 38.05  .02016 1.0235 154.4 20.3 .536  61
2024 04 22 14  15 46 09.960   -09 28 14.30  .02019 1.0235 154.2 20.3 .548  62
2024 04 22 15  15 47 05.970   -09 28 49.91  .02022 1.0235 154.0 20.3 .560  63
2024 04 22 16  15 48 01.809   -09 29 24.88  .02025 1.0235 153.8 20.3 .573  64
2024 04 22 17  15 48 57.477   -09 29 59.20  .02028 1.0235 153.6 20.3 .585  65